Change the Weather History Date:

Saturday, August 24, 2013

  Actual Average Record
Temperature  
Mean Temperature 76 °F 78 °F  
Max Temperature 83 °F 87 °F 100 °F (2002)
Min Temperature 68 °F 70 °F 56 °F (1953)
Degree Days  
Heating Degree Days 0 0  
Month to date heating degree days 0 0  
Since 1 June heating degree days 0 1  
Since 1 July heating degree days 0 0  
Cooling Degree Days 11 13  
Month to date cooling degree days 345 348  
Year to date cooling degree days 1527 1438  
Since 1 June cooling degree days 1271 1195  
Growing Degree Days 26 (Base 50)    
Moisture  
Dew Point 66 °F    
Average Humidity 74    
Maximum Humidity 93    
Minimum Humidity 54    
Precipitation  
Precipitation 0.00 in 0.21 in 1.91 in (1988)
Month to date precipitation 5.85 5.25  
Year to date precipitation 29.14 35.40  
Snow  
Snow 0.00 in - - ()
Month to date snowfall 0.0  
Since 1 July snowfall 0.0  
Snow Depth 0.00 in    
Sea Level Pressure  
Sea Level Pressure 30.15 in    
Wind  
Wind Speed 9 mph (NNE)    
Max Wind Speed 17 mph    
Max Gust Speed 23 mph    
Visibility 10 miles    
Events      
T = Trace of Precipitation, MM = Missing Value Source: NWS Daily Summary

Daily Weather History Graph

Daily Weather History Graph

Search for Another Location

Airport or City:

Trip Planner

Search our weather history database for the weather conditions in past years. The results will help you decide how hot, cold, wet, or windy it might be!

Date:

Astronomy

Aug. 24, 2013 Rise Set
Actual Time 6:35 AM EDT 7:45 PM EDT
Civil Twilight 6:08 AM EDT 8:11 PM EDT
Nautical Twilight 5:37 AM EDT 8:42 PM EDT
Astronomical Twilight 5:04 AM EDT 9:15 PM EDT
Moon 9:50 PM EDT (8/24) 10:21 AM EDT (8/24)
Length of Visible Light 14h 02m
Length of Day
13h 10m
Waning Gibbous, 84% of the Moon is Illuminated
Aug 24
Waning Gibbous
Aug 28
Last Quarter
Sep 5
New
Sep 12
First Quarter
Sep 19
Full

Hourly Weather History & Observations

Time (EDT) Temp. Heat Index Dew Point Humidity Pressure Visibility Wind Dir Wind Speed Gust Speed Precip Events Conditions
12:54 AM 73.0 °F - 70.0 °F 90% 30.05 in 10.0 mi NNW 5.8 mph - N/A   Partly Cloudy
1:08 AM 73.4 °F - 69.8 °F 88% 30.06 in 10.0 mi North 6.9 mph - N/A   Mostly Cloudy
1:22 AM 71.6 °F - 69.8 °F 94% 30.06 in 8.0 mi North 8.1 mph - N/A   Overcast
1:49 AM 71.6 °F - 69.8 °F 94% 30.05 in 9.0 mi NNW 4.6 mph - N/A   Scattered Clouds
1:54 AM 72.0 °F - 69.1 °F 91% 30.05 in 9.0 mi NW 3.5 mph - N/A   Partly Cloudy
2:54 AM 72.0 °F - 70.0 °F 93% 30.05 in 5.0 mi NNW 4.6 mph - N/A   Scattered Clouds
3:16 AM 71.6 °F - 69.8 °F 94% 30.05 in 7.0 mi North 9.2 mph - N/A   Mostly Cloudy
3:19 AM 71.6 °F - 69.8 °F 94% 30.05 in 7.0 mi North 9.2 mph - N/A   Mostly Cloudy
3:54 AM 72.0 °F - 68.0 °F 87% 30.05 in 10.0 mi North 12.7 mph 18.4 mph N/A   Mostly Cloudy
4:54 AM 71.1 °F - 68.0 °F 90% 30.08 in 10.0 mi North 10.4 mph - N/A   Overcast
5:20 AM 71.6 °F - 66.2 °F 83% 30.09 in 10.0 mi North 11.5 mph - N/A   Overcast
5:54 AM 70.0 °F - 66.0 °F 87% 30.10 in 10.0 mi North 10.4 mph - N/A   Overcast
6:32 AM 69.8 °F - 66.2 °F 88% 30.11 in 10.0 mi NNE 10.4 mph - N/A   Mostly Cloudy
6:54 AM 70.0 °F - 64.9 °F 84% 30.12 in 10.0 mi North 11.5 mph - N/A   Clear
7:54 AM 70.0 °F - 64.9 °F 84% 30.14 in 10.0 mi NNE 8.1 mph - N/A   Clear
8:54 AM 72.0 °F - 64.9 °F 78% 30.16 in 10.0 mi NNE 9.2 mph - N/A   Clear
9:54 AM 75.0 °F - 64.9 °F 71% 30.17 in 10.0 mi North 11.5 mph - N/A   Clear
10:54 AM 78.1 °F - 64.9 °F 64% 30.19 in 10.0 mi North 12.7 mph - N/A   Clear
11:54 AM 81.0 °F 82.2 °F 63.0 °F 54% 30.20 in 10.0 mi North 12.7 mph - N/A   Clear
12:54 PM 82.9 °F 84.6 °F 64.9 °F 54% 30.20 in 10.0 mi ENE 11.5 mph - N/A   Scattered Clouds
1:54 PM 80.1 °F 81.7 °F 64.0 °F 58% 30.20 in 10.0 mi NE 13.8 mph - N/A   Mostly Cloudy
2:54 PM 82.0 °F 83.8 °F 64.9 °F 56% 30.20 in 10.0 mi NNE 13.8 mph - N/A   Mostly Cloudy
3:54 PM 82.0 °F 83.8 °F 64.9 °F 56% 30.19 in 10.0 mi NNE 6.9 mph - N/A   Mostly Cloudy
4:54 PM 80.1 °F 81.9 °F 64.9 °F 60% 30.20 in 10.0 mi NE 10.4 mph - N/A   Mostly Cloudy
5:54 PM 80.1 °F 82.1 °F 66.0 °F 62% 30.21 in 10.0 mi ENE 9.2 mph - N/A   Scattered Clouds
6:54 PM 79.0 °F - 63.0 °F 58% 30.22 in 10.0 mi NE 9.2 mph - N/A   Clear
7:54 PM 75.0 °F - 62.1 °F 64% 30.23 in 10.0 mi NE 6.9 mph - N/A   Clear
8:54 PM 73.0 °F - 63.0 °F 71% 30.25 in 10.0 mi NE 6.9 mph - N/A   Clear
9:54 PM 72.0 °F - 64.0 °F 76% 30.26 in 10.0 mi NE 5.8 mph - N/A   Clear
10:54 PM 70.0 °F - 64.0 °F 81% 30.27 in 10.0 mi NE 5.8 mph - N/A   Clear
11:54 PM 70.0 °F - 64.9 °F 84% 30.28 in 10.0 mi NNE 6.9 mph - N/A   Clear